FW3700 Weather Reports


time (UTC)temp
C
wind
direction
speed
KPH
gust
KPH
rain 1hr
cm
rain 24hr
cm
rain mn
cm
humidity
%
barometer
mb
20260906051505 10 0.0 0.0 0.00 0.30 0.00 83 1000.6
20260906050004 10 0.0 0.0 0.00 0.30 0.00 83 1000.3
20260906044502 10 0.0 0.0 0.00 0.30 0.00 83 1000.1
20260906043001 10 0.0 0.0 0.00 0.30 0.00 83 1000.0
20260906041559 10 0.0 0.0 0.00 0.30 0.00 82 999.7
20260906040114 10 0.0 0.0 0.00 0.30 0.00 82 999.5
20260906034556 10 0.0 0.0 0.00 0.30 0.00 82 999.5
20260906033057 10 0.0 0.0 0.00 0.30 0.00 82 999.2
20260906031556 10 0.0 0.0 0.00 0.30 0.00 82 998.9
20260906030055 10 0.0 0.0 0.00 0.30 0.00 82 998.7
20260906024549 10 0.0 0.0 0.00 0.30 0.00 82 998.6
20260906023104 10 0.0 0.0 0.00 0.30 0.00 82 998.4
20260906021546 10 0.0 0.0 0.00 0.30 0.00 82 998.3
20260906020046 10 0.0 0.0 0.00 0.30 0.00 82 998.1
20260906014556 10 0.0 0.0 0.00 0.30 0.00 82 997.9
20260906013044 10 0.0 0.0 0.00 0.30 0.00 82 997.9
20260906011552 10 0.0 0.0 0.00 0.30 0.00 82 997.8
20260906010042 10 0.0 0.0 0.00 0.30 0.00 82 997.8
20260906004541 10 0.0 0.0 0.00 0.33 0.00 81 997.7
20260906003140 9 0.0 0.0 0.00 0.33 0.00 80 997.7
20260906001538 10 0.0 0.0 0.00 0.33 0.00 80 997.5
20260906000039 10 0.0 0.0 0.00 0.33 0.00 80 997.4
20260905234547 10 0.0 0.0 0.00 0.33 0.00 80 997.4
20260905233137 10 0.0 0.0 0.00 0.33 0.00 80 997.3
20260905231536 9 0.0 0.0 0.00 0.33 0.00 79 997.3
20260905230041 10 0.0 0.0 0.00 0.33 0.00 79 997.3
20260905224537 10 0.0 0.0 0.00 0.33 0.00 79 997.2
20260905223132 10 0.0 0.0 0.00 0.33 0.00 79 997.2
20260905221528 10 0.0 0.0 0.00 0.33 0.00 78 997.0
20260905220026 10 0.0 0.0 0.00 0.33 0.00 78 997.0
20260905214524 10 0.0 0.0 0.00 0.33 0.00 78 996.9
20260905213123 11 0.0 0.0 0.00 0.33 0.00 78 996.9
20260905211522 11 0.0 0.0 0.00 0.33 0.00 78 996.8
20260905210017 11 0.0 0.0 0.00 0.33 0.33 78 996.8
20260905204517 11 0.0 0.0 0.00 0.33 0.33 79 996.6
20260905203015 11 0.0 0.0 0.00 0.33 0.33 79 996.4
20260905201518 11 0.0 0.0 0.00 0.33 0.33 79 996.3
20260905200012 11 0.0 0.0 0.00 0.33 0.33 79 996.2
20260905194511 11 0.0 0.0 0.00 0.33 0.33 78 996.2
20260905193011 11 0.0 0.0 0.00 0.33 0.33 78 996.1
20260905191511 12 0.0 0.0 0.00 0.33 0.33 78 996.0
20260905190023 12 0.0 0.0 0.00 0.33 0.33 78 996.0
20260905184507 12 0.0 0.0 0.00 0.33 0.33 78 996.0
20260905183010 12 0.0 0.0 0.00 0.33 0.33 78 995.8
20260905181511 12 0.0 0.0 0.00 0.33 0.33 77 995.9
20260905180005 12 0.0 0.0 0.00 0.33 0.33 77 995.7
20260905174504 12 0.0 0.0 0.00 0.33 0.33 77 995.6
20260905173004 12 0.0 0.0 0.00 0.33 0.33 76 995.6
20260905171502 12 0.0 0.0 0.00 0.33 0.33 76 995.4
20260905170101 12 0.0 0.0 0.00 0.33 0.33 76 995.2
20260905164605 13 0.0 0.0 0.00 0.33 0.33 75 995.1
20260905163059 13 0.0 0.0 0.00 0.33 0.33 74 995.2
20260905161557 13 0.0 0.0 0.00 0.33 0.33 73 995.0
20260905160114 13 0.0 0.0 0.00 0.33 0.33 72 994.8
20260905154555 13 0.0 0.0 0.00 0.33 0.33 71 994.7
20260905153101 13 0.0 0.0 0.00 0.33 0.33 71 994.6
20260905151552 13 0.0 0.0 0.00 0.33 0.33 70 994.5
20260905150054 13 0.0 0.0 0.00 0.33 0.33 71 994.4
20260905144549 13 0.0 0.0 0.00 0.33 0.33 73 994.2
20260905143048 13 0.0 0.0 0.00 0.33 0.33 75 994.2
20260905141554 13 0.0 0.0 0.00 0.33 0.33 75 994.0
20260905140047 13 0.0 0.0 0.03 0.33 0.33 75 993.9
20260905134546 13 0.0 0.0 0.13 0.33 0.33 76 993.9
20260905133044 13 0.0 0.0 0.13 0.33 0.33 76 993.8
20260905131558 12 0.0 0.0 0.13 0.33 0.33 74 993.8
20260905130048 13 0.0 0.0 0.08 0.28 0.28 71 993.5
20260905124539 15 0.0 0.0 0.00 0.20 0.20 72 993.3
20260905123037 15 0.0 0.0 0.03 0.20 0.20 74 993.1
20260905121537 14 0.0 0.0 0.03 0.20 0.20 75 992.9
20260905120039 13 0.0 0.0 0.05 0.20 0.20 75 992.8
20260905114532 13 0.0 0.0 0.05 0.20 0.20 76 992.9
20260905113032 12 0.0 0.0 0.13 0.18 0.18 75 992.9
20260905111554 12 0.0 0.0 0.15 0.18 0.18 75 992.7
20260905110030 13 0.0 0.0 0.10 0.15 0.15 76 992.7
20260905104528 13 0.0 0.0 0.13 0.15 0.15 77 992.6
20260905103028 13 0.0 0.0 0.05 0.08 0.05 76 992.4
20260905101527 13 0.0 0.0 0.03 0.05 0.05 75 992.3
20260905100026 13 0.0 0.0 0.03 0.05 0.05 74 992.2
20260905094526 13 0.0 0.0 0.00 0.41 0.03 73 992.1
20260905093022 14 0.0 0.0 0.00 0.41 0.03 72 992.0
20260905091519 13 0.0 0.0 0.00 0.41 0.03 72 991.9
20260905090018 13 0.0 0.0 0.00 1.17 0.03 73 991.9
20260905084516 13 0.0 0.0 0.00 1.17 0.03 73 991.6
20260905083016 13 0.0 0.0 0.00 1.17 0.03 73 991.5
20260905081515 13 0.0 0.0 0.00 1.17 0.03 74 991.4
20260905080014 13 0.0 0.0 0.00 1.17 0.03 74 991.3
20260905074513 13 0.0 0.0 0.00 1.17 0.03 75 991.1
20260905073011 13 0.0 0.0 0.00 1.17 0.03 78 991.1
20260905071508 12 0.0 0.0 0.00 1.17 0.03 83 991.1
20260905070006 12 0.0 0.0 0.00 1.19 0.03 84 991.0
20260905064505 12 0.0 0.0 0.00 1.19 0.03 85 990.7
20260905063005 12 0.0 0.0 0.00 1.19 0.03 85 990.7
20260905061504 12 0.0 0.0 0.00 1.19 0.03 85 990.5
20260905060004 11 0.0 0.0 0.00 1.27 0.03 85 990.5
20260905054506 11 0.0 0.0 0.00 1.27 0.03 85 990.3
20260905053002 11 0.0 0.0 0.00 1.27 0.03 85 990.1